Flag for U.S.A. Weather past 2 weeks in Bozeman, Montana, U.S.A.

Now
19 °F

Overcast.


Feels Like: 8 °F
Forecast: 10 / 34 °F
Wind: 9 mph from Southwest

Location: Gallatin Field

Current Time: Jan 31, 2015 at 11:11:29 PM

Latest Report: Jan 31, 2015 at 9:56 PM


Visibility: 10 mi

Pressure: 30.36 "Hg

Humidity: 74%

Dew point: 12 °F

Location of BozemanLocation

Historic Weather in Bozeman — Graph

°F

Bozeman temperature yesterday

Maximum temperature yesterday: 42 °F (at 2:56 PM)
Minimum temperature yesterday: 20 °F (at 6:56 AM)
Average temperature yesterday: 28 °F

Past Weeks' High & Low Weather Summary

 TemperatureHumidityPressure
High50 °F (Jan 18, 1:56 PM)92% (Jan 25, 12:56 AM)30.57 "Hg (Jan 25, 12:56 AM)
Low12 °F (Jan 22, 4:56 AM)43% (Jan 30, 2:56 PM)29.87 "Hg (Jan 18, 1:56 PM)
Average32 °F72%30.28 "Hg
* Reported Jan 16 9:56 PM — Jan 31 9:56 PM, Bozeman, Weather by CustomWeather, © 2014

Note: Actual official high and low records may vary slightly from our data, if they occured in-between our weather recording intervals... More about our weather records

Advertising

Bozeman weather history for previous 24 hours

 ConditionsComfort  
Time TempWeatherWind HumidityBarometerVisibility
9:56 PM
Jan 31
19 °FOvercast.9 mph74%30.36 "Hg10 mi
8:56 PM19 °FOvercast.3 mph74%30.37 "Hg10 mi
7:56 PM20 °FOvercast.No wind74%30.37 "Hg10 mi
6:56 PM21 °FOvercast.5 mph71%30.36 "Hg10 mi
5:56 PM24 °FOvercast.5 mph71%30.33 "Hg10 mi
4:56 PM26 °FOvercast.10 mph69%30.28 "Hg10 mi
3:56 PM29 °FOvercast.12 mph64%30.25 "Hg10 mi
2:56 PM31 °FPartly sunny.13 mph64%30.21 "Hg10 mi
1:56 PM32 °FOvercast.13 mph66%30.18 "Hg10 mi
12:56 PM36 °FPartly sunny.8 mph64%30.16 "Hg10 mi
11:56 AM32 °FMostly cloudy.5 mph73%30.17 "Hg10 mi
10:56 AM30 °FOvercast.No wind72%30.18 "Hg10 mi
9:56 AM28 °FPartly sunny.No wind78%30.15 "Hg10 mi
8:56 AM25 °FOvercast.5 mph81%30.17 "Hg10 mi
7:56 AM22 °FScattered clouds.6 mph82%30.19 "Hg10 mi
6:56 AM19 °FPassing clouds.No wind88%30.21 "Hg10 mi
5:56 AM19 °FClear.3 mph88%30.16 "Hg10 mi
4:56 AM21 °FClear.5 mph81%30.14 "Hg10 mi
3:56 AM21 °FClear.No wind81%30.14 "Hg10 mi
2:56 AM22 °FClear.5 mph82%30.15 "Hg10 mi
1:56 AM23 °FClear.7 mph85%30.16 "Hg10 mi
12:56 AM21 °FClear.5 mph81%30.20 "Hg10 mi
11:56 PM
Jan 30
21 °FClear.6 mph81%30.21 "Hg10 mi
Weather by CustomWeather, © 2014

See weather overviewHow to use our weather pages